This demonstration page uses our WeatherBlox Daily Observations layout. Learn more.

Left ArrowRight Arrow

Hourly Observations for January 7, 2022

Temp ( °F °C ) Dew Point ( °F °C ) Humidity (%) Winds ( mph kmh ) Pressure ( in mb ) Visibility ( mi km ) Precip ( " mm )
12:53 am 00:53 Mostly Clear 27 -2.8 14 -10 58 58 NNE 8 13 30.28 1026 10 16 0.00 0.00
1:53 am 01:53 Mostly Clear 26 -3.3 14 -10 60 60 NNE 6 9 30.28 1026 10 16 0.00 0.00
2:53 am 02:53 Mostly Clear 25 -3.9 14 -10 63 63 NNE 6 9 30.28 1025 10 16 0.00 0.00
3:53 am 03:53 Mostly Clear 24 -4.4 14 -10 65 65 N 5 7 30.27 1025 10 16 0.00 0.00
4:53 am 04:53 Mostly Clear 23 -5 14 -10 68 68 NNE 5 7 30.27 1025 10 16 0.00 0.00
5:53 am 05:53 Mostly Clear 23 -5 14 -10 68 68 NNE 3 6 30.27 1025 10 16 0.00 0.00
6:53 am 06:53 Clear 23 -5 15 -9.4 72 72 NNE 3 6 30.28 1026 10 16 0.00 0.00
7:53 am 07:53 Mostly Sunny 23 -5 15 -9.4 72 72 NNE 3 6 30.31 1026 10 16 0.00 0.00
8:18 am 08:18 Mostly Cloudy 24 -4.4 16 -8.9 71 71 N 5 7 30.34 1027 10 16 0.00 0.00
8:27 am 08:27 Mostly Cloudy 24 -4.4 16 -8.9 71 71 NNE 3 6 30.34 1027 10 16 0.00 0.00
8:53 am 08:53 Partly Cloudy 25 -3.9 16 -8.9 69 69 NNE 3 6 30.32 1027 10 16 0.00 0.00
9:04 am 09:04 Mostly Cloudy 26 -3.3 16 -8.9 66 66 ENE 6 9 30.36 1028 10 16 0.00 0.00
9:49 am 09:49 Partly Cloudy 28 -2 18 -8 64 64 VRB 5 7 30.34 1028 10 16 0.00 0.00
9:53 am 09:53 Mostly Sunny 28 -2.2 18 -7.8 66 66 E 5 7 30.32 1027 10 16 0.00 0.00
10:53 am 10:53 Mostly Sunny 33 0.6 22 -5.6 64 64 VRB 6 9 30.31 1026 10 16 0.00 0.00
11:53 am 11:53 Mostly Sunny 36 2.2 24 -4.4 62 62 VRB 3 6 30.27 1025 10 16 0.00 0.00
12:53 pm 12:53 Mostly Sunny 40 4.4 24 -4.4 53 53 SSE 5 7 30.22 1023 10 16 0.00 0.00
1:53 pm 13:53 Partly Cloudy 44 6.7 24 -4.4 45 45 SSE 10 17 30.16 1022 10 16 0.00 0.00
2:53 pm 14:53 Partly Cloudy 43 6.1 24 -4.4 47 47 SSE 8 13 30.14 1021 10 16 0.00 0.00
3:53 pm 15:53 Cloudy 45 7.2 25 -3.9 46 46 SSE 9 15 30.12 1020 10 16 0.00 0.00
4:53 pm 16:53 Cloudy 45 7.2 26 -3.3 48 48 S 9 15 30.12 1020 10 16 0.00 0.00
5:50 pm 17:50 Cloudy 45 7 27 -3 49 49 SE 12 19 30.11 1020 10 16 0.00 0.00
5:53 pm 17:53 Cloudy 45 7.2 27 -2.8 49 49 SSE 12 19 30.11 1020 10 16 0.00 0.00
6:53 pm 18:53 Cloudy 45 7.2 28 -2.2 52 52 S 9 15 30.11 1020 10 16 0.00 0.00
7:53 pm 19:53 Cloudy 46 7.8 29 -1.7 51 51 S 8 13 30.11 1020 10 16 0.00 0.00
8:16 pm 20:16 Cloudy 46 7.8 30 -1.1 54 54 SSE 10 17 30.11 1020 10 16 0.00 0.00
8:53 pm 20:53 Cloudy 47 8.3 31 -0.6 54 54 S 7 11 30.09 1019 10 16 0.00 0.00
9:05 pm 21:05 Cloudy 47 8.3 31 -0.6 54 54 S 9 15 30.10 1019 10 16 0.00 0.00
9:53 pm 21:53 Cloudy 47 8.3 31 -0.6 54 54 S 12 19 30.09 1019 10 16 0.00 0.00
10:53 pm 22:53 Cloudy 47 8.3 32 0 56 56 SSE 12 19 30.08 1019 10 16 0.00 0.00
11:53 pm 23:53 Cloudy 47 8.3 33 0.6 59 59 SSE 12 19 30.07 1018 10 16 0.00 0.00

Powered by AerisWeather